Location: Bessat
(45.8735°N, 1.9924°E)
Time: 12:11:00
(UTC+00:00)

USA 245 - Pass Details

Date: 11 May 2021
Orbit: 265 x 982 km, 97.9° (Epoch: 13 June)

Event Time Altitude Azimuth Distance (km) Brightness Sun altitude
Exits shadow 21:22:55 30° 265° (W) 521 3.5 -18.0°
Drops below altitude 10° 21:24:53 10° 326° (NW) 1,083 6.1 -18.2°
Sets 21:26:49 0° 338° (NNW) 1,924 7.6 -18.4°
